Flag for U.S.A. Weather past 2 weeks in Tulsa, Oklahoma, U.S.A.

Now
80 °F

Passing clouds.


Feels Like: 85 °F
Forecast: 74 / 97 °F
Wind: 5 mph from South

Location: Tulsa International Airport

Current Time: Jul 23, 2014 at 7:20:00 AM

Latest Report: Jul 23, 2014 at 5:53 AM


Visibility: 8 mi

Pressure: 30.04 "Hg

Humidity: 81%

Dew point: 74 °F

Location of TulsaLocation

Historic Weather in Tulsa — Graph

°F

Tulsa temperature yesterday

Maximum temperature yesterday: 93 °F (at 6:53 PM)
Minimum temperature yesterday: 76 °F (at 5:53 AM)
Average temperature yesterday: 83 °F

Past Weeks' High & Low Weather Summary

 TemperatureHumidityPressure
High100 °F (Jul 13, 4:53 PM)100% (Jul 11, 1:53 AM)30.12 "Hg (Jul 11, 1:53 AM)
Low58 °F (Jul 19, 5:53 AM)29% (Jul 9, 4:53 PM)29.85 "Hg (Jul 13, 5:53 PM)
Average77 °F70%30.00 "Hg
* Reported Jul 8 5:53 AM — Jul 23 5:53 AM, Tulsa, Weather by CustomWeather, © 2014

Note: Actual official high and low records may vary slightly from our data, if they occured in-between our weather recording intervals... More about our weather records

Advertising

Tulsa weather history for previous 24 hours

 ConditionsComfort  
Time TempWeatherWind HumidityBarometerVisibility
5:53 AM
Jul 23
80 °FPassing clouds.5 mph81%30.04 "Hg8 mi
4:53 AM80 °FPartly cloudy.3 mph81%30.03 "Hg8 mi
3:53 AM80 °FPassing clouds.No wind85%30.03 "Hg7 mi
2:53 AM82 °FPassing clouds.5 mph79%30.03 "Hg8 mi
12:53 AM84 °FClear.6 mph74%30.04 "Hg8 mi
11:53 PM
Jul 22
84 °FClear.5 mph74%30.03 "Hg9 mi
10:53 PM86 °FClear.5 mph70%30.02 "Hg9 mi
9:53 PM87 °FPassing clouds.6 mph67%30.01 "Hg10 mi
8:53 PM89 °FPassing clouds.7 mph63%30.00 "Hg8 mi
7:53 PM91 °FScattered clouds.8 mph60%29.99 "Hg9 mi
6:53 PM93 °FScattered clouds.8 mph56%29.99 "Hg8 mi
11:53 AM88 °FScattered clouds.6 mph63%30.05 "Hg8 mi
10:53 AM84 °FScattered clouds.10 mph70%30.06 "Hg8 mi
9:53 AM81 °FPartly sunny.9 mph74%30.06 "Hg7 mi
8:53 AM79 °FPartly sunny.10 mph77%30.07 "Hg7 mi
7:53 AM77 °FHigh level clouds.8 mph85%30.05 "Hg7 mi
Weather by CustomWeather, © 2014

See weather overviewHow to use our weather pages